Weather History for Clinton, IA

Change the Weather History Date:

Wednesday, January 4, 2012

  Actual Average Record
Temperature  
Mean Temperature 30 °F -  
Max Temperature 42 °F 27 °F 60 °F (1997)
Min Temperature 19 °F 10 °F -16 °F (1999)
Degree Days  
Heating Degree Days 34    
Moisture  
Dew Point 18 °F    
Average Humidity 61    
Maximum Humidity 80    
Minimum Humidity 42    
Precipitation  
Precipitation 0.00 in - - ()
Sea Level Pressure  
Sea Level Pressure 30.03 in    
Wind  
Wind Speed 8 mph (West)    
Max Wind Speed 18 mph    
Max Gust Speed 21 mph    
Visibility 10 miles    
Events      
Averages and records for this station are not official NWS values.
T = Trace of Precipitation, MM = Missing Value Source: NWS Daily Summary

Daily Weather History Graph

Daily Weather History Graph

Search for Another Location

Airport:

Trip Planner

Search our weather history database for the weather conditions in past years. The results will help you decide how hot, cold, wet, or windy it might be!

Date:

Astronomy

Jan. 04, 2012 Rise Set
Actual Time 7:28 AM CST 4:43 PM CST
Civil Twilight 6:57 AM CST 5:14 PM CST
Nautical Twilight 6:22 AM CST 5:49 PM CST
Astronomical Twilight 5:48 AM CST 6:23 PM CST
Moon 1:06 PM CST (1/4) 3:16 AM CST (1/4)
Length of Visible Light 10h 17m
Length of Day
9h 14m
Waxing Gibbous, 81% of the Moon is Illuminated
Jan 4
Waxing Gibbous
Jan 9
Full
Jan 16
Last Quarter
Jan 23
New
Jan 30
First Quarter

Hourly Weather History & Observations

Time (CST) Temp. Windchill Dew Point Humidity Pressure Visibility Wind Dir Wind Speed Gust Speed Precip Events Conditions
12:15 AM 28.4 °F 19.7 °F 12.2 °F 51% 29.97 in 10.0 mi SSW 9.2 mph - N/A   Clear
12:35 AM 28.4 °F 21.2 °F 12.2 °F 51% 29.97 in 10.0 mi SW 6.9 mph - N/A   Clear
12:55 AM 28.4 °F 21.2 °F 12.2 °F 51% 29.96 in 10.0 mi SW 6.9 mph - N/A   Clear
1:15 AM 28.4 °F 19.7 °F 12.2 °F 51% 29.96 in 10.0 mi SSW 9.2 mph - N/A   Clear
1:35 AM 28.4 °F 22.2 °F 14.0 °F 55% 29.97 in 10.0 mi SSW 5.8 mph - N/A   Partly Cloudy
1:55 AM 28.4 °F 21.2 °F 14.0 °F 55% 29.96 in 10.0 mi SSW 6.9 mph - N/A   Partly Cloudy
2:15 AM 28.4 °F 22.2 °F 14.0 °F 55% 29.97 in 10.0 mi SW 5.8 mph - N/A   Clear
2:35 AM 28.4 °F 22.2 °F 14.0 °F 55% 29.96 in 10.0 mi SSW 5.8 mph - N/A   Clear
2:55 AM 28.4 °F 24.6 °F 15.8 °F 59% 29.97 in 10.0 mi WSW 3.5 mph - N/A   Clear
3:15 AM 28.4 °F 22.2 °F 15.8 °F 59% 29.95 in 10.0 mi SSW 5.8 mph - N/A   Clear
3:35 AM 24.8 °F 16.9 °F 12.2 °F 59% 29.95 in 10.0 mi SSW 6.9 mph - N/A   Clear
3:55 AM 24.8 °F 17.9 °F 12.2 °F 59% 29.95 in 10.0 mi SSW 5.8 mph - N/A   Clear
4:15 AM 24.8 °F 19.1 °F 14.0 °F 64% 29.95 in 10.0 mi SSW 4.6 mph - N/A   Clear
4:35 AM 23.0 °F 15.8 °F 12.2 °F 63% 29.95 in 10.0 mi SW 5.8 mph - N/A   Clear
4:55 AM 21.2 °F 12.6 °F 10.4 °F 63% 29.97 in 10.0 mi West 6.9 mph - N/A   Clear
5:15 AM 21.2 °F 13.6 °F 12.2 °F 68% 29.97 in 10.0 mi West 5.8 mph - N/A   Clear
5:35 AM 21.2 °F 14.9 °F 12.2 °F 68% 29.95 in 10.0 mi WSW 4.6 mph - N/A   Clear
5:55 AM 23.0 °F 15.8 °F 14.0 °F 68% 29.96 in 10.0 mi SW 5.8 mph - N/A   Clear
6:15 AM 21.2 °F 14.9 °F 12.2 °F 68% 29.97 in 10.0 mi West 4.6 mph - N/A   Clear
6:35 AM 19.4 °F 10.4 °F 12.2 °F 74% 29.98 in 10.0 mi West 6.9 mph - N/A   Clear
6:55 AM 19.4 °F 11.5 °F 12.2 °F 74% 29.98 in 10.0 mi West 5.8 mph - N/A   Clear
7:15 AM 19.4 °F 9.5 °F 14.0 °F 80% 30.00 in 10.0 mi WNW 8.1 mph - N/A   Clear
7:35 AM 19.4 °F 11.5 °F 12.2 °F 74% 30.01 in 10.0 mi WNW 5.8 mph - N/A   Clear
7:55 AM 21.2 °F 13.6 °F 15.8 °F 80% 30.02 in 10.0 mi West 5.8 mph - N/A   Clear
8:15 AM 21.2 °F 14.9 °F 15.8 °F 80% 30.01 in 10.0 mi West 4.6 mph - N/A   Clear
8:35 AM 24.8 °F 16.1 °F 17.6 °F 74% 30.03 in 10.0 mi West 8.1 mph - N/A   Clear
8:55 AM 26.6 °F 19.1 °F 17.6 °F 69% 30.04 in 10.0 mi WNW 6.9 mph - N/A   Clear
9:15 AM 28.4 °F 18.5 °F 19.4 °F 69% 30.05 in 10.0 mi NW 11.5 mph - N/A   Clear
9:35 AM 30.2 °F 21.3 °F 19.4 °F 64% 30.05 in 10.0 mi NW 10.4 mph - N/A   Clear
10:15 AM 33.8 °F 25.3 °F 21.2 °F 60% 30.05 in 10.0 mi NW 11.5 mph - N/A   Clear
10:35 AM 35.6 °F 28.0 °F 23.0 °F 60% 30.05 in 10.0 mi NW 10.4 mph - N/A   Clear
10:55 AM 35.6 °F 27.5 °F 23.0 °F 60% 30.05 in 10.0 mi NW 11.5 mph - N/A   Clear
11:15 AM 37.4 °F 28.9 °F 24.8 °F 60% 30.04 in 10.0 mi WNW 13.8 mph - N/A   Clear
11:35 AM 39.2 °F 31.6 °F 24.8 °F 56% 30.04 in 10.0 mi NW 12.7 mph - N/A   Clear
11:55 AM 39.2 °F 31.2 °F 24.8 °F 56% 30.04 in 10.0 mi NW 13.8 mph - N/A   Clear
12:15 PM 39.2 °F 31.2 °F 24.8 °F 56% 30.04 in 10.0 mi NW 13.8 mph - N/A   Clear
12:35 PM 39.2 °F 30.2 °F 24.8 °F 56% 30.04 in 10.0 mi WNW 17.3 mph - N/A   Clear
12:55 PM 42.8 °F 35.1 °F 24.8 °F 49% 30.03 in 10.0 mi WNW 16.1 mph - N/A   Clear
1:15 PM 41.0 °F 32.8 °F 24.8 °F 53% 30.03 in 10.0 mi WNW 16.1 mph - N/A   Clear
1:35 PM 42.8 °F 35.1 °F 24.8 °F 49% 30.04 in 10.0 mi WNW 16.1 mph - N/A   Clear
1:55 PM 42.8 °F 34.5 °F 24.8 °F 49% 30.05 in 10.0 mi WNW 18.4 mph - N/A   Clear
2:15 PM 42.8 °F 35.1 °F 23.0 °F 46% 30.05 in 10.0 mi NW 16.1 mph 20.7 mph N/A   Clear
2:55 PM 41.0 °F 33.5 °F 21.2 °F 45% 30.06 in 10.0 mi NW 13.8 mph - N/A   Clear
3:15 PM 39.2 °F 30.5 °F 17.6 °F 42% 30.07 in 10.0 mi NW 16.1 mph - N/A   Clear
4:15 PM 39.2 °F 33.0 °F 21.2 °F 49% 30.11 in 10.0 mi WNW 9.2 mph - N/A   Clear
4:35 PM 37.4 °F 32.1 °F 21.2 °F 52% 30.10 in 10.0 mi WNW 6.9 mph - N/A   Clear
4:55 PM 35.6 °F 29.9 °F 21.2 °F 56% 30.10 in 10.0 mi WNW 6.9 mph - N/A   Clear
5:15 PM 35.6 °F 30.7 °F 21.2 °F 56% 30.11 in 10.0 mi NW 5.8 mph - N/A   Clear
5:35 PM 33.8 °F 29.6 °F 21.2 °F 60% 30.12 in 10.0 mi West 4.6 mph - N/A   Scattered Clouds
5:55 PM 33.8 °F 27.0 °F 21.2 °F 60% 30.12 in 10.0 mi WNW 8.1 mph - N/A   Overcast
6:15 PM 32.0 °F 23.6 °F 21.2 °F 64% 30.12 in 10.0 mi WNW 10.4 mph - N/A   Overcast
6:35 PM 30.2 °F 21.9 °F 21.2 °F 69% 30.12 in 10.0 mi WNW 9.2 mph - N/A   Mostly Cloudy
6:55 PM 30.2 °F 20.2 °F 21.2 °F 69% 30.12 in 10.0 mi WNW 12.7 mph - N/A   Clear
7:15 PM 30.2 °F 20.8 °F 21.2 °F 69% 30.12 in 10.0 mi West 11.5 mph - N/A   Clear
7:35 PM 30.2 °F 21.3 °F 21.2 °F 69% 30.12 in 10.0 mi West 10.4 mph - N/A   Clear
7:55 PM 28.4 °F 19.7 °F 19.4 °F 69% 30.12 in 10.0 mi West 9.2 mph - N/A   Clear
8:15 PM 26.6 °F 17.5 °F 19.4 °F 74% 30.11 in 10.0 mi West 9.2 mph - N/A   Clear
8:35 PM 28.4 °F 19.7 °F 19.4 °F 69% 30.11 in 10.0 mi West 9.2 mph - N/A   Clear
8:55 PM 26.6 °F 17.5 °F 19.4 °F 74% 30.11 in 10.0 mi West 9.2 mph - N/A   Clear
9:15 PM 26.6 °F 17.5 °F 19.4 °F 74% 30.10 in 10.0 mi West 9.2 mph - N/A   Clear
9:35 PM 26.6 °F 20.0 °F 19.4 °F 74% 30.11 in 10.0 mi West 5.8 mph - N/A   Clear
9:55 PM 28.4 °F 24.6 °F 19.4 °F 69% 30.10 in 10.0 mi WSW 3.5 mph - N/A   Clear
10:15 PM 28.4 °F 21.2 °F 19.4 °F 69% 30.10 in 10.0 mi WSW 6.9 mph - N/A   Clear
10:35 PM 26.6 °F 20.0 °F 19.4 °F 74% 30.09 in 10.0 mi WSW 5.8 mph - N/A   Clear
10:55 PM 28.4 °F 24.6 °F 19.4 °F 69% 30.08 in 10.0 mi WSW 3.5 mph - N/A   Clear
11:15 PM 26.6 °F 19.1 °F 19.4 °F 74% 30.07 in 10.0 mi WSW 6.9 mph - N/A   Clear
11:35 PM 26.6 °F 20.0 °F 19.4 °F 74% 30.05 in 10.0 mi SW 5.8 mph - N/A   Clear
11:55 PM 26.6 °F 20.0 °F 19.4 °F 74% 30.05 in 10.0 mi SW 5.8 mph - N/A   Clear